This is the latest recevied weather packets stored in our database for station/object KB8SSH. If no packets are shown the sender has not sent any weather packets the latest 10 day(s).
| Time | Temp. | Humidity | Pressure | Rain* | Wind** | Luminosity | Snow |
|---|---|---|---|---|---|---|---|
| 1777821861 | 13.33° C | 46% | 1051.6 hPa | 0 mm | - | 143 W/m² | - |
| 1777821558 | 12.78° C | 47% | 1051.6 hPa | 0 mm | - | 84 W/m² | - |
| 1777821256 | 12.78° C | 48% | 1051.6 hPa | 0 mm | - | 59 W/m² | - |
| 1777820953 | 12.22° C | 50% | 1051.9 hPa | 0 mm | - | 65 W/m² | - |
| 1777820649 | 12.22° C | 50% | 1051.9 hPa | 0 mm | - | 57 W/m² | - |
| 1777820346 | 12.22° C | 51% | 1051.9 hPa | 0 mm | - | 70 W/m² | - |
| 1777820044 | 12.22° C | 54% | 1051.9 hPa | 0 mm | - | 71 W/m² | - |
| 1777819740 | 11.67° C | 53% | 1051.6 hPa | 0 mm | - | 57 W/m² | - |
| 1777819438 | 11.67° C | 53% | 1051.6 hPa | 0 mm | - | 63 W/m² | - |
| 1777819136 | 11.11° C | 54% | 1051.9 hPa | 0 mm | - | 331 W/m² | - |
| 1777818832 | 11.11° C | 54% | 1051.9 hPa | 0 mm | - | 57 W/m² | - |
| 1777818528 | 10.56° C | 53% | 1051.9 hPa | 0 mm | - | 104 W/m² | - |
| 1777818226 | 11.11° C | 54% | 1051.9 hPa | 0 mm | - | 62 W/m² | - |
| 1777817921 | 10.56° C | 54% | 1051.9 hPa | 0 mm | - | 67 W/m² | - |
| 1777817620 | 10.56° C | 55% | 1052.2 hPa | 0 mm | - | 140 W/m² | - |
| 1777817316 | 10° C | 56% | 1052.2 hPa | 0 mm | - | 100 W/m² | - |
| 1777817013 | 10° C | 57% | 1052.2 hPa | 0 mm | - | 48 W/m² | - |
| 1777816709 | 10° C | 56% | 1051.9 hPa | 0 mm | - | 49 W/m² | - |
| 1777816407 | 10° C | 58% | 1052.2 hPa | 0 mm | - | 46 W/m² | - |
| 1777816105 | 9.44° C | 57% | 1052.6 hPa | 0 mm | - | 58 W/m² | - |
| 1777815801 | 9.44° C | 58% | 1052.2 hPa | 0 mm | - | 112 W/m² | - |
| 1777815499 | 9.44° C | 58% | 1052.2 hPa | 0 mm | - | 45 W/m² | - |
| 1777815196 | 8.89° C | 59% | 1052.2 hPa | 0 mm | - | 54 W/m² | - |
| 1777814892 | 8.89° C | 60% | 1052.2 hPa | 0 mm | - | 43 W/m² | - |
| 1777814589 | 8.33° C | 62% | 1052.2 hPa | 0 mm | - | 44 W/m² | - |
* Rain latest hour (hover to see other rain measurements)
** Current wind speed in m/s (hover to see current wind gust speed)